STARLINK-1802, 46702

Orbit data source: Space-Track

STARLINK-1802, 46702 is a payload satellite owned by SpaceX/Seattle (US) in LEO that was launched on Sun, 18 Oct 2020 UTC via an FALCON 9 launch vehicle from the Air Force Eastern Test Range (AFETR). Payloads include a variety of satellites, spacecraft, and rockets equipped with specific instruments for various scientific and technological missions. These include communications satellites like Starlink; space stations such as the ISS; scientific satellites like the Hubble; Earth observation satellites from companies like Planet Labs, Umbra, and HawkEye 360; GPS; miniature CubeSats for education and research; and military/defense satellites.

Loading next visibility...
STARLINK-1802 details
Identifier
46702, 2020-073AJ
Orbit
LEO
Last TLE update1 day ago
Origin
Flag of USSpaceX/Seattle (US)
ManufacturerSpaceX/Seattle
MissionOperational Commercial Communications
Bus & MotorSTARLINK, Unknown motor
Mass260 kg wet, ~248 kg dry
Launch date (UTC)
2020-10-18 (4 years ago)
Launch vehicle
FALCON 9
Launch site
Air Force Eastern Test Range (AFETR)
Object type
Payload
Rocket body
Debris
Shape & HBRBox + 1 Pan, 8.86 m
Radar Cross Section13.562 m², Large (>1 m²)

Expand to show TLE details & history

TLE from 1 day ago
0 STARLINK-1802
1 46702U 20073AJ  24360.49074350  .00027613  00000-0  18666-2 0  9996
2 46702  53.0549  33.2579 0001376  86.1104 274.0042 15.06376636231214
Epoch: 2024-12-25T11:46Z
Definitive object data (Epoch: 2024-12-25T11:46:40.238Z)
Latitude-0.00004°
Longitude122.10648°
Altitude548.096 km
Speed7.589 km/s
True Right ascension02h 13m 01s
True Declination0° 00' 00"
Sunlit
Object was in full shadow at TLE epoch
Visualization TLE readout
Latitude-39.69667°
Longitude79.3011°
Altitude560.899 km
Speed7.58 km/s
Apparent Right ascension23h 05m 12s
Apparent Declination-39° 42' 05"
Sunlit
Object is in daylight
Visualization observer readout
Local Sidereal Time10:47:04
Azimuth272.079° WNW
Elevation-86.513°
Doppler factor1
Orbital elements
Apogee altitude548.507 km
Perigee altitude546.601 km
Semi-major axis6,925.691 km
Eccentricity0.0001376
Inclination53.0549°
RAAN33.2579°
Arg. of periapsis86.1104°
True anomaly273.98847°
Mean anomaly274.0042°
Eccentric anomaly273.99634°
Mean motion3.76572 °/min
BSTAR0.0018666
Orbital period95.6 mins
Loading maneuver chart data...
Loading historical data...
Loading historical data...
Loading historical data...
Loading historical data...
Loading historical data...
Loading historical data...
Loading historical data...

STARLINK-1802 Visibility forecast

Observer location: undefined°, undefined

Span
Click to sort rows by Start time (UTC) header in descending order
Start Az.
Max El. time (UTC)
Max El. Az.
Max El.
End time (UTC)
End Az.
7 mins2024-12-26 12:10:43.997Z302.957° NW2024-12-26 12:13:43.997Z244.625° WSW42.055°2024-12-26 12:17:43.997Z141.696° SSE
5 mins2024-12-27 03:44:43.997Z169.597° S2024-12-27 03:46:43.997Z131.501° SE21.419°2024-12-27 03:49:43.997Z79.413° E
6 mins2024-12-27 05:23:43.997Z258.083° W2024-12-27 05:25:43.997Z304.968° NW36.601°2024-12-27 05:29:43.997Z40.416° NE
5 mins2024-12-27 10:25:43.997Z340.041° N2024-12-27 10:27:43.997Z23.275° NE26.184°2024-12-27 10:30:43.997Z83.692° E
|